The Dalles, WA

10:12 AM PST on November 20, 2017 (GMT -0800)
Columbia Gorge Regional-The Dalles

Weather History for KDLS - September, 2012

Change the Weather History Date:

Sunday, September 23, 2012

  Actual Average Record
Temperature  
Mean Temperature 65 °F -  
Max Temperature 80 °F 78 °F 94 °F (1952)
Min Temperature 50 °F 49 °F 32 °F (2000)
Growing Degree Days 15 (Base 50)    
Moisture  
Dew Point 46 °F    
Average Humidity 53    
Maximum Humidity 77    
Minimum Humidity 28    
Precipitation  
Precipitation 0.00 in - - ()
Sea Level Pressure  
Sea Level Pressure 30.04 in    
Wind  
Wind Speed 7 mph (NW)    
Max Wind Speed 16 mph    
Max Gust Speed 23 mph    
Visibility 10 miles    
Events      
Averages and records for this station are not official NWS values.
T = Trace of Precipitation, MM = Missing Value Source: NWS Daily Summary

Daily Weather History Graph

Daily Weather History Graph

Search for Another Location

Airport or City:

Trip Planner

Search our weather history database for the weather conditions in past years. The results will help you decide how hot, cold, wet, or windy it might be!

Date:

Astronomy

Sep. 23, 2012 Rise Set
Actual Time 6:53 AM PDT 6:59 PM PDT
Civil Twilight 6:24 AM PDT 7:28 PM PDT
Nautical Twilight 5:49 AM PDT 8:03 PM PDT
Astronomical Twilight 5:13 AM PDT 8:38 PM PDT
Moon 3:20 PM PDT (9/23) No Moon Set
Length of Visible Light 13h 04m
Length of Day
12h 05m
First Quarter, 61% of the Moon is Illuminated
Sep 23
First Quarter
Sep 29
Full
Oct 8
Last Quarter
Oct 15
New
Oct 21
First Quarter

Hourly Weather History & Observations

Time (PDT) Temp. Dew Point Humidity Pressure Visibility Wind Dir Wind Speed Gust Speed Precip Events Conditions
12:53 AM 61.0 °F 46.9 °F 60% 30.02 in 10.0 mi NW 9.2 mph - N/A   Clear
1:53 AM 62.1 °F 46.9 °F 58% 30.03 in 10.0 mi WNW 4.6 mph - N/A   Clear
2:53 AM 61.0 °F 46.9 °F 60% 30.02 in 10.0 mi WNW 10.4 mph - N/A   Clear
3:53 AM 54.0 °F 45.0 °F 72% 30.04 in 10.0 mi Variable 3.5 mph - N/A   Clear
4:53 AM 57.9 °F 46.0 °F 65% 30.05 in 10.0 mi WNW 8.1 mph - N/A   Clear
5:53 AM 54.0 °F 44.1 °F 69% 30.04 in 10.0 mi Calm Calm - N/A   Clear
6:53 AM 50.0 °F 43.0 °F 77% 30.06 in 10.0 mi Calm Calm - N/A   Clear
7:53 AM 51.1 °F 43.0 °F 74% 30.07 in 10.0 mi ESE 6.9 mph - N/A   Clear
8:53 AM 57.0 °F 46.0 °F 67% 30.08 in 10.0 mi Calm Calm - N/A   Clear
9:53 AM 61.0 °F 46.0 °F 58% 30.08 in 10.0 mi Variable 3.5 mph - N/A   Mostly Cloudy
10:53 AM 64.9 °F 46.9 °F 52% 30.07 in 10.0 mi Variable 3.5 mph - N/A   Clear
11:53 AM 69.1 °F 46.9 °F 45% 30.06 in 10.0 mi NNW 6.9 mph - N/A   Clear
12:53 PM 75.0 °F 45.0 °F 34% 30.04 in 10.0 mi NW 10.4 mph - N/A   Clear
1:53 PM 77.0 °F 44.1 °F 31% 30.02 in 10.0 mi NW 9.2 mph - N/A   Clear
2:53 PM 79.0 °F 43.0 °F 28% 30.01 in 10.0 mi North 4.6 mph - N/A   Clear
3:53 PM 80.1 °F 45.0 °F 29% 30.01 in 10.0 mi NNW 6.9 mph - N/A   Clear
4:53 PM 77.0 °F 46.9 °F 34% 30.00 in 10.0 mi NNW 13.8 mph - N/A   Clear
5:53 PM 73.9 °F 48.0 °F 40% 30.00 in 10.0 mi NNW 15.0 mph - N/A   Clear
6:53 PM 71.1 °F 48.9 °F 45% 30.01 in 10.0 mi NW 16.1 mph 23.0 mph N/A   Clear
7:53 PM 69.1 °F 48.9 °F 49% 30.02 in 10.0 mi NW 15.0 mph - N/A   Clear
8:53 PM 68.0 °F 48.9 °F 50% 30.04 in 10.0 mi NW 6.9 mph - N/A   Clear
9:53 PM 66.0 °F 50.0 °F 56% 30.05 in 10.0 mi NW 6.9 mph - N/A   Clear
10:53 PM 64.9 °F 48.9 °F 56% 30.06 in 10.0 mi WSW 8.1 mph - N/A   Clear
11:53 PM 63.0 °F 48.9 °F 60% 30.05 in 10.0 mi WNW 5.8 mph - N/A   Clear